{"data":{"norad_id":69582,"intl_designator":"2026-138A","name":"CENTISPACE-1 GROUP 05 O*","alt_names":[],"object_type":"PAYLOAD","status":"ACTIVE","operator":null,"country":"PRC","launch_date":"2026-06-17","launch_site_code":"JSC","launch_vehicle":null,"mission":null,"orbit_class":"UNKNOWN","rcs_meters":null,"size_class":null,"mass_kg":null,"dimensions":null,"purposes":[],"wikipedia_slug":null,"has_3d_model":false,"image_url":null,"decayed_at":null,"tle_current":{"epoch":"2026-09-17T21:07:30.015264Z","epoch_age_seconds":255400,"freshness":"STALE","line1":"1 69582U 26138A   26260.88020851 -.00093634  00000+0 -57440-1 0  9995","line2":"2 69582  55.1424 299.7003 0005655 262.7532  97.2796 14.06059082 13134","mean_motion":14.06059082,"eccentricity":0.0005655,"inclination_deg":55.1424,"raan_deg":299.7003,"arg_perigee_deg":262.7532,"mean_anomaly_deg":97.2796,"bstar":-0.05744,"rev_number":1313,"period_min":102.41390411217,"perigee_km":868.78852788548,"apogee_km":876.98943827234,"semimajor_km":7251.0259830789,"source":"CELESTRAK","updated_at":"2026-09-20T09:00:24.995309Z"}}}